Wind_Speed
30 30 28 25 22 19 16 13 11 10 9 9 8 8 7 7 7 8 7 8 9 9 9 10 11 14 16 16 16 17 16 17 18 17 18 19 20 20 19 18 17 16 15
33 31 28 25 22 18 15 13 11 10 10 10 9 9 9 9 9 9 10 10 9 10 11 11 12 13 15 17 17 19 19 18 17 18 19 20 20 20 19 19 18 18 17
32 29 26 23 20 18 16 14 13 12 11 11 11 10 10 11 11 10 12 11 11 11 11 12 13 14 16 17 18 19 20 21 21 21 22 23 22 22 21 21 21 16 16
31 29 27 24 22 20 17 15 14 13 14 14 13 13 12 13 13 13 13 13 13 13 13 13 12 14 15 16 19 21 22 22 23 23 24 25 23 24 22 21 19 19 16
32 30 29 26 24 21 19 17 16 15 16 17 16 18 16 16 15 14 14 14 13 13 13 13 13 14 16 19 21 21 22 24 25 26 25 24 23 23 23 23 20 18 19
32 31 29 27 25 23 21 19 18 17 17 20 20 21 21 20 18 18 16 16 14 14 13 14 14 16 19 23 24 24 24 25 26 27 28 25 24 23 23 23 21 18 19
33 32 30 28 27 25 23 23 21 21 20 25 22 25 25 24 23 20 20 18 16 15 15 17 19 21 23 25 26 27 27 27 27 28 28 27 26 26 23 22 21 19 18
33 32 30 29 28 26 26 27 25 22 24 26 27 28 27 28 26 24 20 19 18 18 17 19 22 24 25 27 28 28 27 27 28 28 30 27 29 28 27 26 22 20 20
32 31 30 30 30 29 32 29 29 27 26 25 26 28 28 30 29 26 20 21 20 21 20 22 24 27 29 32 32 30 26 26 27 28 29 28 29 28 28 26 24 22 21
27 26 27 27 30 31 31 29 32 34 30 34 36 28 35 29 27 25 28 29 24 21 23 25 30 30 32 34 31 27 25 25 26 27 28 28 29 28 28 26 25 23 21
31 36 26 28 25 26 26 29 33 35 36 34 42 39 40 36 42 38 35 37 34 39 38 38 39 36 28 25 23 25 26 26 27 28 29 30 30 29 29 29 26 23 23
36 38 34 30 32 33 37 40 41 40 45 39 34 26 20 34 37 34 30 31 37 43 46 39 36 31 26 23 24 26 27 27 28 29 30 30 31 31 31 30 28 28 26
41 47 38 38 33 38 41 50 35 21 15 6 9 23 22 21 26 32 35 36 32 29 31 34 29 27 28 26 27 27 28 27 28 29 31 32 31 33 32 31 28 29 25
14 38 33 36 29 42 35 21 22 14 17 17 21 21 21 20 21 21 22 25 28 30 33 34 25 25 26 27 27 27 28 28 28 29 30 32 31 32 32 30 27 25 24
11 13 12 9 12 13 15 16 20 20 20 20 20 19 20 21 20 20 22 26 28 28 25 25 26 23 25 25 25 27 28 28 30 30 31 31 31 30 29 28 25 22 21
14 13 14 16 16 18 20 22 25 27 20 20 20 21 22 22 21 22 25 28 28 29 29 26 26 24 24 25 26 28 29 29 31 32 31 31 30 28 27 24 20 18 18
20 20 21 21 20 20 21 22 20 20 21 22 23 24 24 24 21 23 25 28 29 29 27 25 25 25 25 25 27 28 28 29 30 30 29 29 28 26 23 19 17 15 14
22 22 23 22 21 21 21 22 23 23 24 24 25 27 27 25 25 24 27 31 29 27 26 25 25 25 27 28 28 28 29 29 29 29 28 26 24 21 19 16 14 13 12
23 24 24 25 24 25 25 24 26 27 28 27 29 29 27 26 27 28 27 27 26 25 25 25 26 27 29 29 29 30 29 28 28 27 24 21 19 17 15 12 12 10 9
24 25 26 28 27 27 27 27 28 31 33 32 33 32 32 31 30 30 28 27 26 25 25 26 27 28 29 29 29 29 27 26 26 23 20 16 13 12 9 9 9 8 9
29 30 31 30 29 30 28 28 30 33 34 36 35 35 35 33 32 31 30 27 25 25 26 27 29 29 29 29 27 26 25 24 20 17 14 11 9 7 5 6 7 8 8
31 32 32 33 35 35 33 31 31 33 34 34 34 36 36 35 33 31 31 27 25 26 26 27 28 28 28 26 24 24 22 18 14 10 9 7 7 8 11 14 14 13 11
32 34 34 33 32 32 33 33 34 36 36 37 37 37 36 35 33 31 30 27 26 26 27 28 27 27 24 23 21 19 16 11 10 8 6 6 7 7 8 8 12 13 12
30 31 33 34 32 32 31 33 35 37 38 39 39 37 36 34 33 30 29 27 26 26 26 27 25 23 23 21 17 15 12 10 10 8 8 10 10 9 7 7 7 8 9
32 32 32 33 34 33 32 32 35 38 39 39 39 37 35 33 32 31 28 25 27 26 25 25 24 22 20 18 17 13 11 11 12 11 11 11 10 11 12 12 12 12 10
33 33 32 33 33 33 33 33 34 36 38 37 37 35 35 33 32 30 29 27 26 27 26 25 23 22 21 18 16 14 13 11 14 13 12 10 12 11 9 10 11 13 10
Wind_Direction
197 192 193 192 194 200 205 216 225 235 248 255 255 257 256 263 273 282 290 302 309 312 314 315 321 319 318 324 318 317 317 323 327 326 325 319 314 313 310 304 295 288 288
197 197 196 196 200 206 214 226 238 242 244 246 249 256 262 271 283 293 302 303 303 302 309 314 317 315 315 319 319 317 318 326 327 321 320 316 313 309 307 303 296 293 288
200 200 198 201 204 215 227 238 247 253 253 250 252 258 266 271 275 285 295 297 300 304 308 311 317 317 319 321 317 316 317 322 318 317 319 315 311 309 308 307 299 290 290
200 201 202 205 214 224 235 247 256 258 260 257 259 262 271 275 279 286 289 296 304 310 309 315 321 323 323 320 317 321 317 313 315 316 315 312 309 308 308 304 299 284 274
202 205 208 214 222 230 240 247 257 261 266 266 267 268 270 275 276 280 280 289 295 301 304 310 317 325 327 325 322 318 313 311 311 309 313 308 302 304 304 303 299 287 266
208 212 217 223 231 238 245 252 258 263 264 262 264 268 270 272 274 272 277 276 284 290 297 301 306 316 325 325 320 313 306 304 304 306 308 305 308 306 303 302 297 285 269
214 219 226 231 237 241 249 258 260 266 267 273 268 270 267 268 268 270 267 272 274 279 288 294 301 306 316 321 322 317 310 304 301 300 303 305 309 305 305 300 296 285 274
219 224 231 237 243 249 253 258 261 267 276 275 269 267 270 267 264 264 265 268 273 276 282 294 301 305 309 316 318 317 308 302 300 300 302 308 307 308 307 299 295 288 277
229 233 237 243 248 256 258 260 267 272 273 273 267 272 267 263 264 261 257 263 263 268 280 294 303 308 310 311 308 308 305 303 301 305 309 306 304 304 303 301 295 290 279
233 233 239 250 254 254 262 270 274 275 269 272 264 252 267 255 255 262 266 263 266 276 289 299 304 306 315 310 307 302 299 303 303 302 302 300 302 304 298 298 294 290 286
240 231 237 244 256 268 273 277 281 279 270 266 270 261 258 250 264 259 271 262 265 264 272 275 300 310 311 311 303 296 296 296 297 299 299 300 300 304 302 301 292 289 284
244 243 237 250 257 264 272 279 282 290 265 268 288 234 247 253 256 272 273 267 270 279 276 278 290 304 298 300 299 296 298 299 299 297 298 301 301 301 302 301 299 291 286
248 236 244 254 256 265 272 269 278 284 259 183 226 242 242 245 259 268 265 269 277 284 286 284 290 293 297 296 296 297 297 299 299 301 301 302 301 302 301 300 300 291 287
237 236 248 243 262 278 262 247 244 211 218 238 238 234 247 257 260 258 264 272 278 287 285 279 287 292 290 293 293 297 298 300 300 300 300 301 300 299 299 299 297 290 284
268 235 255 278 251 264 254 238 240 233 238 232 240 245 251 252 255 265 273 279 282 285 287 289 291 289 290 292 294 294 295 300 300 299 300 300 299 297 299 298 294 288 283
267 275 272 274 266 261 258 256 243 238 242 237 248 247 250 257 265 272 279 281 281 285 287 287 288 291 290 292 294 297 298 300 301 300 299 295 293 295 293 289 291 285 280
268 268 268 269 268 263 253 248 248 244 250 248 249 251 258 257 267 277 278 284 286 283 283 284 287 288 291 291 294 295 296 296 295 294 295 296 295 293 287 289 284 279 274
270 268 267 266 265 264 259 252 249 247 248 250 251 253 253 259 264 277 279 285 284 280 282 283 287 289 291 292 292 293 292 293 296 297 295 290 291 287 287 283 276 268 267
272 271 271 270 269 266 262 258 253 249 248 249 251 253 257 256 264 273 284 282 276 277 279 280 284 286 288 291 293 296 297 298 298 294 293 291 288 282 281 275 261 256 258
276 273 271 270 268 265 262 258 254 251 251 249 248 249 253 256 265 273 282 276 273 276 278 282 283 286 288 291 293 296 296 295 294 294 291 287 282 274 272 264 267 264 259
270 269 268 267 267 267 266 260 254 252 251 251 249 250 252 257 264 271 277 272 272 274 279 283 285 287 290 291 292 290 291 291 289 285 284 278 263 260 266 277 289 280 276
271 271 270 269 268 266 265 262 257 254 252 252 251 252 254 259 264 270 273 271 272 277 282 285 286 285 285 286 286 288 290 288 281 278 266 262 255 269 276 268 273 277 279
273 273 272 271 270 267 264 260 255 253 253 252 251 252 255 259 262 266 266 269 274 280 285 286 285 283 283 282 284 284 281 272 258 256 259 258 256 255 264 275 261 267 247
283 278 273 269 267 267 266 263 259 257 255 254 254 254 255 256 259 261 261 264 271 280 285 286 282 281 277 277 278 272 262 245 248 253 263 270 255 252 252 259 265 261 252
287 287 283 277 270 267 264 260 259 257 256 256 256 255 256 257 259 259 261 266 274 280 283 282 280 277 273 271 264 253 243 250 251 250 259 252 256 264 269 273 275 272 266
285 285 286 283 277 270 267 267 263 259 258 257 257 256 256 254 255 259 262 267 273 279 280 276 274 271 266 258 242 234 240 255 253 246 239 256 273 268 271 284 270 256 250
Height
3146 3149 3152 3156 3160 3163 3165 3167 3169 3170 3171 3172 3173 3173 3174 3173 3173 3173 3173 3173 3172 3172 3170 3169 3168 3167 3165 3164 3163 3160 3158 3158 3156 3155 3153 3152 3150 3149 3146 3145 3144 3143 3143
3143 3147 3151 3155 3159 3162 3164 3166 3167 3168 3169 3170 3171 3171 3172 3172 3171 3171 3171 3171 3170 3169 3168 3167 3166 3165 3163 3162 3161 3159 3157 3155 3154 3152 3150 3148 3147 3145 3143 3141 3140 3140 3138
3142 3146 3151 3155 3158 3161 3163 3165 3165 3166 3167 3168 3169 3169 3170 3170 3170 3170 3169 3169 3168 3167 3167 3165 3164 3163 3161 3160 3158 3157 3155 3153 3151 3149 3147 3145 3142 3140 3139 3138 3136 3135 3136
3142 3145 3149 3152 3156 3158 3160 3162 3163 3164 3165 3165 3166 3167 3168 3168 3168 3167 3167 3167 3165 3165 3164 3163 3162 3160 3159 3157 3155 3154 3152 3149 3148 3146 3143 3142 3139 3137 3134 3132 3131 3131 3132
3140 3143 3147 3149 3153 3155 3157 3158 3160 3161 3162 3164 3164 3164 3165 3165 3165 3165 3164 3164 3164 3162 3161 3160 3160 3158 3156 3153 3152 3150 3148 3146 3144 3141 3139 3137 3134 3132 3130 3128 3127 3126 3126
3137 3141 3144 3146 3149 3152 3154 3155 3156 3157 3157 3159 3159 3161 3161 3162 3162 3161 3162 3160 3161 3160 3159 3158 3156 3154 3152 3150 3147 3145 3143 3141 3138 3136 3134 3133 3129 3127 3125 3124 3122 3121 3120
3133 3136 3140 3142 3145 3148 3149 3150 3151 3153 3154 3155 3155 3155 3157 3158 3157 3158 3158 3157 3157 3157 3156 3154 3152 3150 3148 3145 3143 3141 3139 3137 3133 3131 3129 3126 3124 3123 3120 3119 3118 3116 3116
3127 3131 3135 3138 3140 3144 3144 3145 3146 3147 3150 3151 3150 3150 3152 3152 3152 3153 3154 3153 3153 3152 3151 3149 3146 3145 3144 3141 3138 3136 3134 3131 3128 3124 3123 3122 3120 3117 3115 3112 3111 3112 3112
3125 3128 3131 3133 3136 3139 3140 3139 3141 3142 3145 3145 3146 3146 3146 3146 3146 3148 3149 3148 3147 3146 3146 3144 3142 3140 3138 3135 3132 3131 3128 3126 3123 3121 3119 3117 3114 3111 3110 3109 3107 3105 3105
3120 3123 3126 3128 3131 3133 3135 3135 3135 3137 3138 3139 3140 3138 3138 3141 3139 3142 3142 3143 3143 3141 3139 3136 3136 3134 3133 3128 3125 3124 3122 3120 3117 3114 3112 3111 3109 3108 3103 3102 3100 3100 3099
3112 3115 3118 3124 3126 3127 3128 3129 3130 3130 3131 3130 3132 3134 3132 3133 3132 3133 3134 3133 3133 3133 3132 3132 3128 3126 3126 3122 3120 3117 3116 3113 3111 3109 3107 3104 3103 3101 3098 3096 3094 3093 3092
3108 3112 3114 3115 3116 3118 3121 3122 3121 3121 3123 3121 3124 3126 3125 3127 3128 3128 3126 3127 3126 3125 3125 3125 3123 3119 3117 3116 3114 3112 3110 3108 3105 3102 3099 3097 3095 3093 3092 3090 3088 3087 3086
3100 3102 3105 3108 3108 3112 3112 3113 3119 3114 3112 3115 3119 3119 3120 3120 3121 3120 3119 3120 3120 3119 3117 3117 3117 3114 3110 3108 3106 3105 3102 3100 3097 3096 3092 3091 3088 3088 3085 3083 3082 3080 3079
3091 3096 3098 3097 3098 3104 3100 3103 3111 3110 3108 3109 3112 3113 3114 3114 3115 3114 3114 3115 3114 3113 3112 3108 3109 3108 3105 3102 3100 3099 3096 3093 3090 3088 3086 3085 3083 3081 3079 3077 3074 3074 3073
3090 3091 3092 3092 3095 3098 3099 3100 3103 3103 3103 3104 3106 3106 3108 3109 3110 3109 3108 3108 3107 3106 3104 3103 3101 3102 3099 3097 3094 3092 3090 3088 3086 3082 3080 3077 3076 3075 3073 3070 3068 3067 3068
3088 3088 3089 3091 3092 3093 3094 3095 3096 3097 3096 3099 3100 3101 3102 3103 3103 3103 3102 3101 3100 3098 3096 3096 3093 3094 3092 3090 3088 3086 3084 3080 3078 3076 3073 3071 3068 3066 3066 3064 3062 3061 3062
3084 3084 3085 3086 3085 3088 3088 3090 3091 3090 3092 3093 3094 3094 3095 3095 3096 3095 3096 3095 3092 3091 3089 3089 3087 3086 3086 3084 3081 3079 3078 3075 3073 3069 3066 3064 3062 3061 3059 3058 3058 3057 3058
3078 3078 3079 3079 3079 3079 3081 3083 3084 3084 3086 3086 3087 3087 3088 3089 3089 3088 3088 3086 3085 3083 3082 3080 3080 3078 3077 3076 3075 3072 3070 3068 3066 3062 3059 3057 3056 3054 3054 3053 3053 3054 3054
3070 3071 3071 3072 3072 3072 3074 3075 3076 3076 3078 3078 3079 3080 3080 3081 3082 3081 3079 3078 3078 3076 3075 3074 3072 3073 3071 3069 3067 3064 3062 3059 3057 3056 3053 3051 3051 3049 3050 3050 3051 3051 3052
3064 3064 3063 3064 3064 3063 3064 3066 3067 3070 3070 3070 3072 3072 3071 3074 3073 3073 3072 3069 3069 3069 3068 3066 3066 3065 3065 3061 3058 3057 3054 3051 3051 3049 3047 3046 3047 3048 3047 3047 3048 3048 3049
3055 3056 3056 3056 3055 3057 3056 3057 3058 3061 3062 3062 3063 3063 3063 3065 3065 3065 3064 3062 3062 3062 3060 3059 3058 3056 3055 3053 3050 3050 3048 3046 3043 3043 3043 3042 3043 3045 3044 3045 3046 3046 3046
3045 3048 3046 3046 3046 3046 3047 3047 3049 3051 3052 3053 3054 3054 3055 3055 3054 3055 3056 3054 3053 3054 3052 3050 3050 3048 3046 3045 3044 3044 3042 3042 3040 3038 3039 3039 3040 3041 3042 3042 3043 3043 3044
3034 3036 3036 3035 3036 3035 3037 3037 3039 3042 3042 3043 3044 3045 3045 3046 3046 3045 3047 3044 3043 3044 3044 3043 3041 3042 3039 3038 3038 3036 3037 3035 3036 3037 3035 3036 3038 3039 3039 3039 3039 3039 3040
3025 3026 3025 3024 3024 3024 3026 3028 3029 3031 3032 3034 3035 3034 3035 3036 3036 3035 3034 3035 3034 3035 3033 3037 3034 3034 3033 3031 3031 3031 3032 3033 3034 3034 3033 3034 3035 3036 3036 3036 3036 3036 3037
3015 3015 3014 3014 3015 3014 3016 3018 3020 3022 3023 3023 3025 3026 3025 3027 3026 3027 3028 3025 3028 3028 3025 3026 3029 3029 3026 3024 3027 3027 3027 3029 3030 3030 3031 3032 3033 3033 3033 3032 3032 3033 3033
3004 3003 3003 3003 3002 3004 3006 3009 3010 3011 3012 3014 3016 3016 3015 3016 3015 3015 3019 3019 3019 3021 3018 3019 3020 3020 3021 3021 3022 3023 3022 3024 3026 3026 3029 3030 3029 3029 3029 3029 3029 3030 3030